Regional Weather Roundup
Issued by NWS

Home | Current Version | Previous Version | Graphics & Text | Print | Product List | Glossary On
Versions: 1 2 3 4 5 6 7 8 9 10 11 12 13 14 15 16 17 18 19 20 21 22 23 24 25 26 27 28 29 30 31 32 33 34 35 36 37 38 39 40 41 42 43 44 45 46 47 48 49 50
425
ASUS45 KTFX 180210
RWRMT
MONTANA REGIONAL WEATHER ROUNDUP
NATIONAL WEATHER SERVICE GREAT FALLS MT
800 PM MDT THU AUG 17 2017

NOTE: "FAIR" INDICATES FEW OR NO CLOUDS BELOW 12000 FEET WITH NO
SIGNIFICANT WEATHER AND/OR OBSTRUCTIONS TO VISIBILITY.

MTZ001>007-043-180300-
WEST OF THE DIVIDE

CITY           SKY/WX    TMP DP  RH WIND       PRES   REMARKS
KALISPELL      PTCLDY    80  41  24 W6        29.99R
MISSOULA       CLEAR     81  38  21 NW9       30.03R
BUTTE          CLEAR     75  34  22 NW10      30.15R
MULLAN PASS    CLEAR     64  39  39 VRB6      30.23S
ANACONDA         N/A     72  41  33 N3        30.12R
DEER LODGE       N/A     72  39  30 NW10      30.12R
EUREKA           N/A     81  43  26 MISG      29.99R
HAMILTON         N/A     79  37  22 SW5       30.06R
LIBBY            N/A     81  39  22 NW5       30.01R
RONAN            N/A     81  41  24 SW6       30.08R
$$

MTZ008-052>055-180300-
SOUTHWEST MONTANA

CITY           SKY/WX    TMP DP  RH WIND       PRES   REMARKS
BOZEMAN        CLEAR     75  40  28 CALM      30.07S
DILLON         CLEAR     78  36  21 CALM      30.10R
W YELLOWSTONE  MOCLDY    70  34  26 SW7       30.22R
ENNIS          CLEAR     75  36  23 N5        30.16S
THREE FORKS      N/A     79  39  23 CALM      30.04S
$$

MTZ009-010-012-014-046-048-049-054-180300-
EAST SLOPES AND CENTRAL MONTANA

CITY           SKY/WX    TMP DP  RH WIND       PRES   REMARKS
CUT BANK       MOCLDY    77  39  25 W10       30.01R
GREAT FALLS    CLEAR     77  36  22 NE6       30.00S
MALMSTROM AFB  CLEAR     78  36  21 E3        30.00R
HELENA         CLEAR     81  36  19 W12       30.04R
AUGUSTA          N/A     77  35  22 CALM      30.05R
BOWMANS CRNR     N/A     77  33  20 W15       30.02R
CHOTEAU          N/A     77  37  24 E3        30.04R
FAIRFIELD        N/A     78  35  20 E3        30.01R
POWER            N/A     79  34  20 CALM      30.01S
RAYNESFORD       N/A     75  35  23 NE8       30.03S
ULM              N/A     77  36  22 NE8       30.00R
$$

MTZ011-013-016-021-045-047-050-051-180300-
NORTH CENTRAL MONTANA

CITY           SKY/WX    TMP DP  RH WIND       PRES   REMARKS
HAVRE          CLEAR     79  35  20 NW8       29.95R
LEWISTOWN      CLEAR     75  34  22 CALM      30.05R
N BAR RANCH      N/A     70  34  26 NW6       30.09R
CHINOOK          N/A     81  39  22 NW7       29.93R
DENTON           N/A     78  34  20 N12       29.98S
GEYSER           N/A     74  33  22 NE8       30.03
GRASS RANGE      N/A     75  32  20 NW10      30.00R
JUDITH GAP       N/A     69  37  31 N8        30.07R
WINIFRED         N/A     77  31  18 NW7       30.01R
$$

MTZ017>020-022>027-061-062-180300-
NORTHEAST MONTANA

CITY           SKY/WX    TMP DP  RH WIND       PRES   REMARKS
GLASGOW        CLOUDY    76  39  26 NE8       29.90S
JORDAN           N/A     79  40  24 NE10      29.92R
SIDNEY         CLEAR     73  47  39 NW8       29.88R
WOLF POINT     CLEAR     77  42  28 N6        29.90R
MALTA          PTCLDY    77  43  29 E6        29.91R
PLENTYWOOD       N/A     72  52  49 NE5       29.91R
POPLAR           N/A     77  46  33 CALM      29.90R
$$

MTZ028>42-056>058-180300-
SOUTHCENTRAL AND SOUTHEAST MONTANA

CITY           SKY/WX    TMP DP  RH WIND       PRES   REMARKS
BAKER          PTCLDY    73  39  29 NE5       29.94R
BILLINGS       PTCLDY    79  32  18 N9        29.99R
LIVINGSTON     CLEAR     74  36  25 W9        30.07R
MILES CITY     CLEAR     82  32  16 N9        29.90R
BIG TIMBER     CLEAR     75  34  22 W9        30.08R
FORSYTH          N/A     82  36  18 CALM      29.91S
HARLOWTON        N/A     74  33  22 MISG      30.06R
LAUREL           N/A     78  32  18 CALM      30.00R
$$

REGIONAL REPORTS...DAKOTAS

CITY           SKY/WX    TMP DP  RH WIND       PRES   REMARKS
WILLISTON      CLOUDY    73  53  49 NW12      29.85S
MINOT          CLEAR     71  56  58 E9        29.82R
DICKINSON      MOCLDY    71  46  40 W8        29.88R
BEACH            N/A     70  50  49 CALM      29.94R
CROSBY           N/A     73  54  49 N12       29.89R
TIOGA          TSTM      61  50  67 E23G32    29.87R
WATFORD CITY     N/A     73  50  43 NW9G16    29.85R
BISMARCK       PTCLDY    72  59  63 S7        29.83R
GRAND FORKS    PTCLDY    68  64  87 SE3       29.82R
FARGO          CLEAR     66  62  87 NE3       29.83S
BUFFALO SD       N/A     72  46  39 W10       29.87R
RAPID CITY     PTCLDY    65  55  70 W8        29.96R
$$

REGIONAL REPORTS...WYOMING/IDAHO/WASHINGTON

CITY           SKY/WX    TMP DP  RH WIND       PRES   REMARKS
GILLETTE       CLEAR     65  48  54 W7        30.04R
SHERIDAN       CLEAR     65  48  54 W6        30.02S
BUFFALO WY     PTCLDY    71  39  31 W3        30.10S
CODY           PTCLDY    71  42  35 N3        30.12R
YELLOWSTONE LA   N/A     61  34  36 VRB3      30.33R
IDAHO FALLS    CLEAR     78  37  22 S14       30.11R
SALMON         CLOUDY    76  41  28 N3        30.05R
BOISE          CLEAR     85  29  13 NW9       30.02F
SPOKANE        PTCLDY    82  40  22 W8        30.04S
$$

REGIONAL REPORTS...ALBERTA

CITY           SKY/WX    TMP DP  RH WIND       PRES   REMARKS
EDMONTON       MOCLDY    68  52  56 W2        29.90F
CALGARY        MOCLDY    70  48  46 E13       29.96S
LETHBRIDGE     PTCLDY    73  45  35 E13       29.93R
MEDICINE HAT   PTCLDY    75  45  33 S5        29.92S
$$

REGIONAL REPORTS...SASKATCHEWAN

CITY           SKY/WX    TMP DP  RH WIND       PRES   REMARKS
SWIFT CURRENT  PTCLDY    68  45  42 N3        29.96R
REGINA         PTCLDY    70  45  40 W8        29.90R SMOKE
SASKATOON      PTCLDY    66  54  63 NW6       29.89R
$$




USA.gov is the U.S. government's official web portal to all federal, state and local government web resources and services.